Regional Weather Roundup
Issued by NWS

Home | Current Version | Previous Version | Text Only | Print | Product List | Glossary On
Versions: 1 2 3 4 5 6 7 8 9 10 11 12 13 14 15 16 17 18 19 20 21 22 23 24 25 26 27 28 29 30 31 32 33 34 35 36 37 38 39 40 41 42 43 44 45 46 47 48 49 50
000
ASUS43 KLMK 021810
RWRKY
KENTUCKY REGIONAL WEATHER ROUNDUP
NATIONAL WEATHER SERVICE LOUISVILLE KY
200 PM EDT TUE SEP 02 2014

NOTE "FAIR" INDICATES FEW OR NO CLOUDS BELOW 12,000 FEET
WITH NO SIGNIFICANT WEATHER AND/OR OBSTRUCTIONS TO VISIBILITY.

KYZ001>023-026-027-061>063-070>075-021900-
WESTERN AND SOUTH CENTRAL KENTUCKY

CITY           SKY/WX    TMP DP  RH WIND       PRES   REMARKS
PADUCAH        CLOUDY    85  72  65 W10       29.98R HX  91
HENDERSON      PTSUNNY   88  72  58 SW12      29.95R HX  94
OWENSBORO      PTSUNNY   86  79  79 W12       29.96R HX  99
HOPKINSVILLE   PTSUNNY   86  75  70 SW12      29.99R HX  95
BOWLING GREEN  PTSUNNY   87  73  62 SW12      29.98F HX  94
GLASGOW        PTSUNNY   86  71  60 SW10G18   29.99F HX  92
$$

KYZ024-025-028>034-038-045-046-053-021900-
NORTH CENTRAL KENTUCKY

CITY           SKY/WX    TMP DP  RH WIND       PRES   REMARKS
LOUISVILLE/SDF PTSUNNY   84  73  69 SW12      29.96F HX  90
LOUISVILLE/LOU CLOUDY    82  72  71 S9        29.96F
FORT KNOX      PTSUNNY   84  73  70 SW10      29.97S HX  91
$$

KYZ035>037-039>044-047>052-055>060-089>105-021900-
NORTHEAST KENTUCKY

CITY           SKY/WX    TMP DP  RH WIND       PRES   REMARKS
LEXINGTON      PTSUNNY   85  71  63 SW12G21   29.99F HX  90
COVINGTON      LGT RAIN  76  69  79 SW7       29.98R
FRANKFORT      CLOUDY    83  72  69 SW10      29.97F
$$

KYZ054-064>069-076>088-106>120-021900-
SOUTHEAST KENTUCKY

CITY           SKY/WX    TMP DP  RH WIND       PRES   REMARKS
JACKSON        PTSUNNY   86  71  60 MISG      30.03F HX  91
LONDON         MOSUNNY   88  69  53 SW15      30.04F HX  92
SOMERSET       PTSUNNY   86  68  54 W15       30.03S
MIDDLESBORO    MOSUNNY   88  71  57 S9G16     30.06S HX  93
MONTICELLO     PTCLDY    87  72  61 SW16      30.04F HX  93
$$



USA.gov is the U.S. government's official web portal to all federal, state and local government web resources and services.